Regional Weather Roundup
Issued by NWS

Home | Current Version | Previous Version | Text Only | Print | Product List | Glossary Off
Versions: 1 2 3 4 5 6 7 8 9 10 11 12 13 14 15 16 17 18 19 20 21 22 23 24 25 26 27 28 29 30 31 32 33 34 35 36 37 38 39 40 41 42 43 44 45 46 47 48 49 50

000
ASUS43 KMPX 172201
RWRMN
WEATHER ROUNDUP FOR MINNESOTA
NATIONAL WEATHER SERVICE TWIN CITIES/CHANHASSEN MN
500 PM CDT THU APR 17 2014


NOTE: "FAIR" INDICATES FEW OR NO CLOUDS BELOW 12,000 FEET WITH NO
SIGNIFICANT WEATHER AND/OR OBSTRUCTIONS TO VISIBILITY. N/A MEANS
CURRENT SKY AND/OR WEATHER CONDITIONS ARE NOT AVAILABLE.

MNZ060>063-068>070-172300-
   Twin Cities Metro

CITY           SKY/WX    TMP DP  RH WIND       PRES   REMARKS
TWIN CITIES    MOSUNNY   42  27  55 NW8       30.29R
ST PAUL        MOSUNNY   42  26  53 W8        30.30R
CRYSTAL        MOSUNNY   39  24  55 W7        30.28R
EDEN PRAIRIE   SUNNY     41  26  55 NW7       30.29R
LAKEVILLE      MOSUNNY   39  27  60 NW5       30.28S
SOUTH ST PAUL  PTSUNNY   44  28  52 W3        30.29R
LAKE ELMO      FAIR      41  30  65 NW6       30.29R
$$
MNZ001>005-007-008-013>017-022>024-027-028-172300-
   Northwest Minnesota

CITY           SKY/WX    TMP DP  RH WIND       PRES   REMARKS
BEMIDJI        SUNNY     41   3  20 N8        30.24F
HALLOCK        CLOUDY    39   9  28 NW7       30.30F
ROSEAU         SUNNY     39   7  26 E8        30.29S
WARROAD        SUNNY     36  10  35 E8        30.30S
THIEF RVR FALL SUNNY     39   9  28 NW3       30.28S
CROOKSTON      SUNNY     43  14  31 NW8       30.30S
FOSSTON        SUNNY     45  10  24 NW7       30.27S
DETROIT LAKES  SUNNY     41  14  33 N9        30.26F
MOORHEAD       SUNNY     43   9  24 NW3       30.29F
PARK RAPIDS    SUNNY     44   2  17 VRB3      30.22F
$$
MNZ006-009>011-018-025>026-172300-
   North Central Minnesota

CITY           SKY/WX    TMP DP  RH WIND       PRES   REMARKS
BAUDETTE       SUNNY     38  10  31 N9        30.28S
INTL FALLS     PTSUNNY   37  16  42 E3        30.26S
WASKISH        SUNNY     41  14  33 W6        30.26S
BIG FORK       PTSUNNY   39  18  41 E6        30.26S
LONGVILLE      SUNNY     43  18  36 CALM      30.24S
GRAND RAPIDS   PTSUNNY   39  19  45 N8        30.25R
CRANE LAKE     CLOUDY    32  25  74 N3        30.29S
ORR            CLOUDY    34  19  55 N3        30.24S
COOK           CLOUDY    34  21  60 N5        30.26S WCI  30
$$
MNZ012-019>021-037-172300-
   Northeast Minnesota

CITY           SKY/WX    TMP DP  RH WIND       PRES   REMARKS
DULUTH         CLOUDY    36  21  54 N9        30.23R
ELY            CLOUDY    32  21  64 N7        30.24R WCI  26
HIBBING        CLOUDY    36  20  52 N8        30.25R
EVELETH        CLOUDY    34  23  64 NW8       30.26R WCI  27
DULUTH HARBOR  CLOUDY    39  27  60 CALM      30.28R
TWO HARBORS    CLOUDY    36  21  55 NW5       30.23R
SILVER BAY     SUNNY     36  27  69 NW7       30.23R
GRAND MARAIS     N/A     33  31  92 CALM      30.24R
G MARAIS ARPRT LGT SNOW  30  23  74 N8        30.19R WCI  23
$$
MNZ029>031-032-039>041-046>048-054>057-064-172300-
   West Central Minnesota

CITY           SKY/WX    TMP DP  RH WIND       PRES   REMARKS
FERGUS FALLS   SUNNY     43  10  26 NW9       30.24S
WHEATON        SUNNY     46  19  34 W5        30.29F
MORRIS         SUNNY     43  19  39 NE3       30.27F
ALEXANDRIA     SUNNY     40  16  37 VRB3      30.26F
ELBOW LAKE     FAIR      42  15  32 W6        30.27S
WADENA         SUNNY     43  14  31 NW6       30.23F
GLENWOOD       SUNNY     39  16  38 W3        30.27F
APPLETON       SUNNY     43  18  36 NW3       30.29F
BENSON         SUNNY     41  19  42 NE5       30.29F
ORTONVILLE     SUNNY     39  18  41 CALM      30.29S
MADISON        SUNNY     43  19  39 N3        30.29F
WILLMAR        FAIR      39  21  48 NW5       30.31S
$$
MNZ033>034-036-042>043-049>051-058-059-172300-
   Central Minnesota

CITY           SKY/WX    TMP DP  RH WIND       PRES   REMARKS
ST CLOUD       MOSUNNY   42  21  43 N5        30.27S
SAUK CENTRE    FAIR      40  17  39 NW3       30.27S
PAYNESVILLE    SUNNY     37  22  55 CALM      30.29S
AITKIN         PTSUNNY   48  19  32 NW3       30.22S
PINE RIVER     SUNNY     43  18  36 N7        30.26S
BRAINERD       SUNNY     48  19  31 N6        30.24F
STAPLES        SUNNY     45   9  23 NW6       30.23F
LONG PRAIRIE   FAIR      39  16  38 NW5       30.27S
LITTLE FALLS   SUNNY     41  19  42 E3        30.26S
LITCHFIELD     SUNNY     37  25  60 NW7       30.30S
BUFFALO        MOSUNNY   39  23  52 W3        30.30S
MAPLE LAKE     MOSUNNY   40  25  54 NW5       30.30R
$$
MNZ037-044-045-052-053-172300-
   East Central Minnesota

CITY           SKY/WX    TMP DP  RH WIND       PRES   REMARKS
PRINCETON      MOSUNNY   43  23  45 SW5       30.29R
MORA           SUNNY     41  21  45 NW6       30.27S
CAMBRIDGE      MOSUNNY   43  27  52 W5        30.26R
RUSH CITY      MOSUNNY   40  24  53 CALM      30.27S
MOOSE LAKE     PTSUNNY   41  23  48 NE6       30.24R
HINCKLEY       FAIR      41  25  52 CALM      30.26R
CLOQUET        CLOUDY    37  21  52 N7        30.25R
MCGREGOR       MOSUNNY   43  23  45 N8        30.24S
$$
MNZ071>073-080-081-089-090-097-098-172300-
   Southwest Minnesota

CITY           SKY/WX    TMP DP  RH WIND       PRES   REMARKS
MONTEVIDEO     SUNNY     43  23  45 NE6       30.30F
GRANITE FALLS  MOSUNNY   37  24  61 SW5       30.33S
CANBY          MOSUNNY   38  21  48 CALM      30.31S
MARSHALL       MOSUNNY   37  21  52 N7        30.30S
REDWOOD FALLS  MOSUNNY   37  25  61 W6        30.30F
OLIVIA         MOSUNNY   36  28  75 W7        30.30S
PIPESTONE      MOSUNNY   39  19  45 E5        30.26F
WINDOM         MOSUNNY   41  28  60 N7        30.29S
WORTHINGTON    SUNNY     41  21  45 N8        30.29F
JACKSON        SUNNY     43  28  56 N7        30.28S
TRACY          MOSUNNY   37  26  64 CALM      30.30S
SLAYTON        MOSUNNY   37  20  50 NW8       30.28F
$$
MNZ065>067-074>077-082>085-091>093-172300-
   South Central Minnesota

CITY           SKY/WX    TMP DP  RH WIND       PRES   REMARKS
MANKATO        CLOUDY    39  28  65 NW8       30.30S
NEW ULM        MOSUNNY   39  28  65 N7        30.30R
ST JAMES       MOSUNNY   45  30  57 W7        30.30S
FAIRMONT       PTSUNNY   43  28  56 W7        30.30S
GLENCOE        SUNNY     39  25  57 N5        30.29S
FARIBAULT      CLOUDY    41  27  56 W3        30.29F
OWATONNA       CLOUDY    37  28  70 NW7       30.29S
WASECA         CLOUDY    39  32  75 NW8       30.30F
ALBERT LEA     PTSUNNY   39  30  70 NW9       30.28S
$$
MNZ078>079-086>088-094>096-172300-
   Southeast Minnesota

CITY           SKY/WX    TMP DP  RH WIND       PRES   REMARKS
ROCHESTER      CLOUDY    37  29  72 NW13      30.27S
RED WING       CLOUDY    39  28  65 W5        30.29R
STANTON        PTSUNNY   40  28  62 W6        30.28S
DODGE CENTER   CLOUDY    37  30  75 NW9       30.28R
WINONA         CLOUDY    37  30  75 N6        30.28S
AUSTIN         CLOUDY    37  30  75 NW12      30.27S
PRESTON        CLOUDY    37  31  77 NW12      30.28R
$$
ABBREVIATIONS USED IN REMARKS
   TC - TEMPERATURES IN CELSIUS
  WCI - WIND CHILL INDEX
   HX - HEAT INDEX
  VSB - VISIBILITY
$$



USA.gov is the U.S. government's official web portal to all federal, state and local government web resources and services.